GLO1292 SBGR-SBCH

Flight info

Callsign GLO1292
Flight time 1h 7m
Altitude 32000
Route SOVSI UZ85 RAXIT DCT UMDOR
Aircraft B738/M-SDE2E3FGHIRWXY/LB1

Departure

Time 2026-04-20 19:42
Airport São Paulo/Guarulhos–Governor André Franco Montoro International Airport (SBGR)

Arrival

Time 2026-04-20 20:49
Airport Serafin Enoss Bertaso Airport (SBCH)
Time Latitude Longitude Altitude Speed Heading
2026-04-20 19:22 -23.42864 -46.48349 2466 ft 0 kts 85°
2026-04-20 19:36 -23.42865 -46.48358 2460 ft 4 kts 87°
2026-04-20 19:36 -23.42864 -46.48387 2460 ft 4 kts 100°
2026-04-20 19:36 -23.42857 -46.48414 2460 ft 4 kts 126°
2026-04-20 19:36 -23.42838 -46.48429 2462 ft 4 kts 179°
2026-04-20 19:37 -23.42854 -46.48430 2460 ft 3 kts 180°
2026-04-20 19:37 -23.42858 -46.48430 2460 ft 0 kts 180°
2026-04-20 19:39 -23.42875 -46.48430 2464 ft 6 kts 184°
2026-04-20 19:39 -23.42937 -46.48448 2467 ft 12 kts 191°
2026-04-20 19:39 -23.43037 -46.48447 2465 ft 15 kts 169°
2026-04-20 19:40 -23.43105 -46.48428 2462 ft 15 kts 165°
2026-04-20 19:40 -23.43232 -46.48389 2465 ft 14 kts 164°
2026-04-20 19:40 -23.43294 -46.48369 2460 ft 13 kts 163°
2026-04-20 19:40 -23.43381 -46.48340 2463 ft 13 kts 163°
2026-04-20 19:41 -23.43415 -46.48271 2459 ft 13 kts 75°
2026-04-20 19:41 -23.43383 -46.48164 2466 ft 27 kts 72°
2026-04-20 19:41 -23.43260 -46.47716 2459 ft 96 kts 73°
2026-04-20 19:41 -23.43013 -46.46800 2463 ft 154 kts 74°
2026-04-20 19:42 -23.42687 -46.45545 2741 ft 181 kts 76°
2026-04-20 19:42 -23.42331 -46.44194 3413 ft 188 kts 77°
2026-04-20 19:42 -23.41951 -46.42785 3900 ft 201 kts 77°
2026-04-20 19:42 -23.41531 -46.41274 4215 ft 213 kts 77°
2026-04-20 19:43 -23.40921 -46.39127 4420 ft 239 kts 75°
2026-04-20 19:43 -23.40561 -46.37961 4585 ft 251 kts 73°
2026-04-20 19:43 -23.40255 -46.36105 5153 ft 249 kts 96°
2026-04-20 19:43 -23.40582 -46.34249 5654 ft 253 kts 117°
2026-04-20 19:44 -23.41764 -46.32804 5958 ft 264 kts 150°
2026-04-20 19:44 -23.43539 -46.32195 6361 ft 274 kts 178°
2026-04-20 19:44 -23.45405 -46.32557 7032 ft 271 kts 205°
2026-04-20 19:44 -23.46862 -46.33829 7736 ft 274 kts 231°
2026-04-20 19:45 -23.47883 -46.35612 8308 ft 280 kts 239°
2026-04-20 19:45 -23.48821 -46.37503 8873 ft 286 kts 240°
2026-04-20 19:45 -23.49755 -46.39433 9511 ft 289 kts 240°
2026-04-20 19:45 -23.50697 -46.41371 10178 ft 291 kts 239°
2026-04-20 19:46 -23.51671 -46.43351 10519 ft 306 kts 239°
2026-04-20 19:46 -23.52717 -46.45457 10661 ft 326 kts 239°
2026-04-20 19:46 -23.53836 -46.47694 10794 ft 344 kts 239°
2026-04-20 19:46 -23.55012 -46.50042 10957 ft 360 kts 239°
2026-04-20 19:47 -23.56227 -46.52465 11366 ft 365 kts 239°
2026-04-20 19:47 -23.57477 -46.54888 11928 ft 367 kts 234°
2026-04-20 19:47 -23.58992 -46.57081 12499 ft 367 kts 227°
2026-04-20 19:47 -23.60673 -46.59245 13049 ft 370 kts 226°
2026-04-20 19:48 -23.62332 -46.61363 13582 ft 373 kts 226°
2026-04-20 19:48 -23.64014 -46.63534 14126 ft 376 kts 227°
2026-04-20 19:48 -23.65699 -46.65739 14628 ft 379 kts 227°
2026-04-20 19:48 -23.67388 -46.67970 15153 ft 381 kts 227°
2026-04-20 19:49 -23.69078 -46.70213 15705 ft 384 kts 227°
2026-04-20 19:49 -23.70776 -46.72473 16213 ft 386 kts 227°
2026-04-20 19:49 -23.72485 -46.74747 16713 ft 389 kts 227°
2026-04-20 19:49 -23.74208 -46.77039 17169 ft 392 kts 227°
2026-04-20 19:50 -23.75947 -46.79367 17664 ft 395 kts 228°
2026-04-20 19:50 -23.77661 -46.81671 18150 ft 397 kts 228°
2026-04-20 19:50 -23.79407 -46.84021 18590 ft 400 kts 228°
2026-04-20 19:50 -23.81168 -46.86393 19007 ft 402 kts 228°
2026-04-20 19:51 -23.82946 -46.88788 19366 ft 405 kts 228°
2026-04-20 19:51 -23.84729 -46.91190 19761 ft 408 kts 229°
2026-04-20 19:51 -23.86499 -46.93576 20157 ft 411 kts 229°
2026-04-20 19:51 -23.88307 -46.96014 20560 ft 413 kts 229°
2026-04-20 19:52 -23.90123 -46.98463 20943 ft 416 kts 229°
2026-04-20 19:52 -23.91948 -47.00927 21332 ft 418 kts 229°
2026-04-20 19:52 -23.93781 -47.03402 21744 ft 420 kts 230°
2026-04-20 19:52 -23.95626 -47.05895 22120 ft 422 kts 230°
2026-04-20 19:53 -23.97482 -47.08403 22452 ft 425 kts 230°
2026-04-20 19:53 -23.99346 -47.10924 22841 ft 427 kts 230°
2026-04-20 19:53 -24.01221 -47.13461 23211 ft 429 kts 230°
2026-04-20 19:53 -24.03098 -47.16002 23602 ft 430 kts 230°
2026-04-20 19:54 -24.04980 -47.18551 23969 ft 430 kts 231°
2026-04-20 19:54 -24.06862 -47.21102 24364 ft 430 kts 231°
2026-04-20 19:54 -24.08739 -47.23647 24691 ft 430 kts 231°
2026-04-20 19:54 -24.10606 -47.26179 24928 ft 434 kts 231°
2026-04-20 19:55 -24.12448 -47.28808 25171 ft 437 kts 235°
2026-04-20 19:55 -24.14108 -47.31592 25578 ft 436 kts 238°
2026-04-20 19:55 -24.15704 -47.34422 25784 ft 440 kts 238°
2026-04-20 19:55 -24.17305 -47.37299 25978 ft 443 kts 238°
2026-04-20 19:56 -24.18918 -47.40180 26231 ft 445 kts 238°
2026-04-20 19:56 -24.20559 -47.43079 26379 ft 450 kts 238°
2026-04-20 19:56 -24.22222 -47.45990 26604 ft 452 kts 238°
2026-04-20 19:56 -24.23894 -47.48904 26926 ft 451 kts 238°
2026-04-20 19:57 -24.25575 -47.51824 27156 ft 453 kts 238°
2026-04-20 19:57 -24.27264 -47.54759 27304 ft 457 kts 238°
2026-04-20 19:57 -24.28941 -47.57676 27554 ft 458 kts 238°
2026-04-20 19:57 -24.30639 -47.60632 27828 ft 458 kts 238°
2026-04-20 19:58 -24.32342 -47.63603 27991 ft 461 kts 238°
2026-04-20 19:58 -24.34054 -47.66588 28209 ft 462 kts 238°
2026-04-20 19:58 -24.35764 -47.69572 28553 ft 461 kts 238°
2026-04-20 19:58 -24.37463 -47.72539 28901 ft 459 kts 238°
2026-04-20 19:59 -24.39167 -47.75505 29199 ft 459 kts 238°
2026-04-20 19:59 -24.40871 -47.78463 29490 ft 459 kts 238°
2026-04-20 19:59 -24.42581 -47.81430 29838 ft 458 kts 238°
2026-04-20 19:59 -24.44276 -47.84371 30250 ft 454 kts 238°
2026-04-20 20:00 -24.45965 -47.87306 30586 ft 452 kts 238°
2026-04-20 20:00 -24.47642 -47.90223 30904 ft 451 kts 238°
2026-04-20 20:00 -24.49314 -47.93133 31207 ft 449 kts 238°
2026-04-20 20:00 -24.50952 -47.95986 31538 ft 447 kts 238°
2026-04-20 20:01 -24.52604 -47.98866 31892 ft 445 kts 237°
2026-04-20 20:01 -24.54257 -48.01750 32068 ft 446 kts 237°
2026-04-20 20:01 -24.55914 -48.04643 32060 ft 447 kts 237°
2026-04-20 20:02 -24.59217 -48.10413 32062 ft 443 kts 237°
2026-04-20 20:02 -24.62476 -48.16115 32073 ft 440 kts 237°
2026-04-20 20:03 -24.65732 -48.21817 32076 ft 440 kts 237°
2026-04-20 20:03 -24.68989 -48.27527 32076 ft 440 kts 237°
2026-04-20 20:04 -24.72217 -48.33194 32070 ft 440 kts 237°
2026-04-20 20:04 -24.75464 -48.38901 32085 ft 439 kts 237°
2026-04-20 20:05 -24.78711 -48.44615 32083 ft 441 kts 237°
2026-04-20 20:05 -24.81968 -48.50352 32082 ft 441 kts 237°
2026-04-20 20:06 -24.85197 -48.56050 32083 ft 441 kts 237°
2026-04-20 20:06 -24.88448 -48.61788 32082 ft 442 kts 237°
2026-04-20 20:07 -24.91696 -48.67529 32088 ft 442 kts 237°
2026-04-20 20:07 -24.94947 -48.73281 32090 ft 442 kts 237°
2026-04-20 20:08 -24.98195 -48.79037 32080 ft 441 kts 237°
2026-04-20 20:08 -25.01433 -48.84783 32084 ft 441 kts 237°
2026-04-20 20:09 -25.04646 -48.90491 32098 ft 440 kts 238°
2026-04-20 20:09 -25.07870 -48.96225 32088 ft 439 kts 238°
2026-04-20 20:10 -25.11089 -49.01957 32083 ft 438 kts 238°
2026-04-20 20:10 -25.14297 -49.07677 32090 ft 437 kts 238°
2026-04-20 20:11 -25.17478 -49.13356 32090 ft 437 kts 238°
2026-04-20 20:11 -25.20674 -49.19067 32090 ft 436 kts 238°
2026-04-20 20:12 -25.23862 -49.24772 32083 ft 436 kts 238°
2026-04-20 20:12 -25.27022 -49.30434 32086 ft 435 kts 238°
2026-04-20 20:13 -25.31792 -49.38992 32135 ft 435 kts 238°
2026-04-20 20:13 -25.34973 -49.44708 32124 ft 435 kts 238°
2026-04-20 20:14 -25.38123 -49.50377 32113 ft 436 kts 238°
2026-04-20 20:14 -25.41298 -49.56095 32092 ft 436 kts 238°
2026-04-20 20:15 -25.44469 -49.61816 32070 ft 436 kts 238°
2026-04-20 20:15 -25.47643 -49.67547 32075 ft 436 kts 238°
2026-04-20 20:16 -25.50814 -49.73280 32071 ft 437 kts 238°
2026-04-20 20:16 -25.53989 -49.79028 32069 ft 437 kts 238°
2026-04-20 20:17 -25.57166 -49.84786 32064 ft 438 kts 238°
2026-04-20 20:17 -25.60317 -49.90504 32065 ft 438 kts 238°
2026-04-20 20:18 -25.63488 -49.96267 32085 ft 438 kts 238°
2026-04-20 20:18 -25.66661 -50.02039 32065 ft 438 kts 239°
2026-04-20 20:19 -25.69830 -50.07812 32064 ft 438 kts 239°
2026-04-20 20:19 -25.72999 -50.13592 32061 ft 438 kts 239°
2026-04-20 20:20 -25.76141 -50.19328 32061 ft 437 kts 239°
2026-04-20 20:20 -25.79299 -50.25102 32059 ft 438 kts 239°
2026-04-20 20:21 -25.82457 -50.30885 32062 ft 438 kts 239°
2026-04-20 20:21 -25.85593 -50.36632 32062 ft 438 kts 239°
2026-04-20 20:22 -25.88748 -50.42423 32067 ft 438 kts 239°
2026-04-20 20:22 -25.91903 -50.48220 32064 ft 438 kts 239°
2026-04-20 20:23 -25.95053 -50.54016 32061 ft 438 kts 239°
2026-04-20 20:23 -25.98182 -50.59780 32065 ft 438 kts 239°
2026-04-20 20:24 -26.01334 -50.65594 32066 ft 439 kts 239°
2026-04-20 20:24 -26.04490 -50.71424 32064 ft 439 kts 239°
2026-04-20 20:25 -26.07103 -50.76255 32064 ft 439 kts 239°
2026-04-20 20:25 -26.10762 -50.83030 32066 ft 439 kts 239°
2026-04-20 20:26 -26.13907 -50.88861 32071 ft 439 kts 240°
2026-04-20 20:26 -26.16518 -50.93708 32065 ft 439 kts 240°
2026-04-20 20:27 -26.19658 -50.99543 32066 ft 438 kts 240°
2026-04-20 20:27 -26.21229 -51.02466 31740 ft 441 kts 240°
2026-04-20 20:27 -26.22794 -51.05378 31362 ft 434 kts 240°
2026-04-20 20:28 -26.24339 -51.08256 30897 ft 431 kts 240°
2026-04-20 20:28 -26.25871 -51.11109 30446 ft 427 kts 240°
2026-04-20 20:28 -26.27392 -51.13947 29930 ft 425 kts 240°
2026-04-20 20:28 -26.28888 -51.16738 29414 ft 422 kts 240°
2026-04-20 20:29 -26.30384 -51.19532 28916 ft 419 kts 240°
2026-04-20 20:29 -26.31870 -51.22307 28430 ft 415 kts 240°
2026-04-20 20:29 -26.33343 -51.25061 27952 ft 411 kts 241°
2026-04-20 20:29 -26.34801 -51.27788 27488 ft 408 kts 241°
2026-04-20 20:30 -26.36250 -51.30501 27018 ft 405 kts 241°
2026-04-20 20:30 -26.37689 -51.33195 26565 ft 403 kts 241°
2026-04-20 20:30 -26.39118 -51.35874 26105 ft 400 kts 241°
2026-04-20 20:30 -26.40540 -51.38540 25634 ft 398 kts 242°
2026-04-20 20:31 -26.41953 -51.41194 25175 ft 397 kts 242°
2026-04-20 20:31 -26.43361 -51.43837 24701 ft 395 kts 242°
2026-04-20 20:31 -26.44761 -51.46467 24246 ft 394 kts 242°
2026-04-20 20:31 -26.46160 -51.49097 23789 ft 393 kts 242°
2026-04-20 20:32 -26.47539 -51.51691 23260 ft 392 kts 242°
2026-04-20 20:32 -26.48930 -51.54309 22798 ft 389 kts 242°
2026-04-20 20:32 -26.50304 -51.56895 22342 ft 386 kts 242°
2026-04-20 20:32 -26.51670 -51.59467 21901 ft 383 kts 242°
2026-04-20 20:33 -26.53023 -51.62017 21465 ft 380 kts 242°
2026-04-20 20:33 -26.54368 -51.64555 21026 ft 378 kts 242°
2026-04-20 20:33 -26.55703 -51.67075 20606 ft 375 kts 242°
2026-04-20 20:33 -26.57029 -51.69579 20178 ft 373 kts 242°
2026-04-20 20:34 -26.58343 -51.72062 19758 ft 371 kts 242°
2026-04-20 20:34 -26.59651 -51.74534 19343 ft 369 kts 242°
2026-04-20 20:34 -26.60954 -51.76999 18916 ft 367 kts 242°
2026-04-20 20:34 -26.62237 -51.79427 18499 ft 366 kts 242°
2026-04-20 20:35 -26.63528 -51.81873 18038 ft 365 kts 242°
2026-04-20 20:35 -26.64812 -51.84304 17606 ft 362 kts 242°
2026-04-20 20:35 -26.66103 -51.86753 17170 ft 360 kts 242°
2026-04-20 20:35 -26.67356 -51.89129 16765 ft 357 kts 242°
2026-04-20 20:36 -26.68620 -51.91528 16352 ft 355 kts 242°
2026-04-20 20:36 -26.69867 -51.93895 15956 ft 353 kts 242°
2026-04-20 20:36 -26.71108 -51.96254 15559 ft 351 kts 242°
2026-04-20 20:36 -26.72343 -51.98601 15164 ft 349 kts 242°
2026-04-20 20:37 -26.73569 -52.00933 14773 ft 347 kts 242°
2026-04-20 20:37 -26.74779 -52.03235 14383 ft 346 kts 242°
2026-04-20 20:37 -26.76002 -52.05563 13968 ft 346 kts 242°
2026-04-20 20:37 -26.77218 -52.07878 13546 ft 345 kts 242°
2026-04-20 20:38 -26.78432 -52.10193 13129 ft 344 kts 242°
2026-04-20 20:38 -26.79640 -52.12498 12724 ft 342 kts 242°
2026-04-20 20:38 -26.80843 -52.14793 12322 ft 340 kts 242°
2026-04-20 20:38 -26.82039 -52.17075 11937 ft 339 kts 242°
2026-04-20 20:39 -26.83213 -52.19316 11544 ft 337 kts 242°
2026-04-20 20:39 -26.84399 -52.21583 11161 ft 336 kts 242°
2026-04-20 20:39 -26.85578 -52.23837 10785 ft 335 kts 242°
2026-04-20 20:39 -26.86742 -52.26064 10586 ft 327 kts 242°
2026-04-20 20:40 -26.87877 -52.28233 10434 ft 319 kts 242°
2026-04-20 20:40 -26.88981 -52.30346 10291 ft 310 kts 242°
2026-04-20 20:40 -26.90057 -52.32405 10155 ft 302 kts 242°
2026-04-20 20:40 -26.91102 -52.34409 10028 ft 294 kts 242°
2026-04-20 20:41 -26.92121 -52.36362 9727 ft 293 kts 242°
2026-04-20 20:41 -26.93146 -52.38331 9434 ft 291 kts 242°
2026-04-20 20:41 -26.94161 -52.40281 9139 ft 289 kts 242°
2026-04-20 20:41 -26.95175 -52.42227 8846 ft 288 kts 242°
2026-04-20 20:42 -26.96184 -52.44166 8541 ft 287 kts 241°
2026-04-20 20:42 -26.97187 -52.46093 8268 ft 285 kts 241°
2026-04-20 20:42 -26.98183 -52.48010 7976 ft 284 kts 241°
2026-04-20 20:42 -26.99164 -52.49897 7699 ft 282 kts 241°
2026-04-20 20:43 -27.00151 -52.51796 7431 ft 281 kts 241°
2026-04-20 20:43 -27.01132 -52.53683 7155 ft 279 kts 241°
2026-04-20 20:43 -27.02096 -52.55540 7036 ft 272 kts 241°
2026-04-20 20:43 -27.02863 -52.57436 6855 ft 263 kts 262°
2026-04-20 20:44 -27.02818 -52.59460 6628 ft 258 kts 281°
2026-04-20 20:44 -27.02432 -52.61419 6374 ft 257 kts 284°
2026-04-20 20:44 -27.02010 -52.63362 6148 ft 254 kts 284°
2026-04-20 20:44 -27.01609 -52.65240 6013 ft 242 kts 284°
2026-04-20 20:45 -27.01250 -52.67003 5904 ft 229 kts 281°
2026-04-20 20:45 -27.01162 -52.68757 5651 ft 223 kts 266°
2026-04-20 20:45 -27.01486 -52.70426 5411 ft 217 kts 251°
2026-04-20 20:45 -27.02164 -52.71911 5165 ft 211 kts 237°
2026-04-20 20:46 -27.03103 -52.73142 4932 ft 206 kts 224°
2026-04-20 20:46 -27.04233 -52.74091 4718 ft 200 kts 211°
2026-04-20 20:46 -27.05478 -52.74738 4503 ft 195 kts 199°
2026-04-20 20:46 -27.06784 -52.75072 4276 ft 193 kts 187°
2026-04-20 20:47 -27.08119 -52.75091 4042 ft 189 kts 174°
2026-04-20 20:47 -27.09389 -52.74819 3833 ft 185 kts 165°
2026-04-20 20:47 -27.10575 -52.74332 3565 ft 178 kts 149°
2026-04-20 20:47 -27.11492 -52.73513 3395 ft 165 kts 131°
2026-04-20 20:48 -27.12128 -52.72492 3156 ft 160 kts 117°
2026-04-20 20:48 -27.12561 -52.71364 2949 ft 156 kts 106°
2026-04-20 20:48 -27.12764 -52.70186 2723 ft 153 kts 96°
2026-04-20 20:48 -27.12942 -52.69010 2483 ft 153 kts 99°
2026-04-20 20:49 -27.13114 -52.67817 2310 ft 156 kts 97°
2026-04-20 20:49 -27.13283 -52.66598 2131 ft 158 kts 98°
2026-04-20 20:49 -27.13434 -52.65535 2144 ft 109 kts 99°
2026-04-20 20:49 -27.13516 -52.64950 2153 ft 29 kts 98°
2026-04-20 20:50 -27.13545 -52.64877 2159 ft 5 kts 70°
2026-04-20 20:50 -27.13527 -52.64879 2162 ft 4 kts 295°
2026-04-20 20:50 -27.13517 -52.64942 2156 ft 13 kts 280°
2026-04-20 20:50 -27.13497 -52.65076 2155 ft 22 kts 279°
2026-04-20 20:51 -27.13468 -52.65268 2151 ft 28 kts 279°
2026-04-20 20:51 -27.13434 -52.65511 2144 ft 34 kts 278°
2026-04-20 20:51 -27.13397 -52.65794 2139 ft 39 kts 278°
2026-04-20 20:51 -27.13363 -52.65987 2139 ft 12 kts 311°
2026-04-20 20:52 -27.13290 -52.66006 2137 ft 7 kts 326°
2026-04-20 20:52 -27.13274 -52.66066 2134 ft 9 kts 278°
2026-04-20 20:52 -27.13267 -52.66117 2134 ft 2 kts 288°
2026-04-20 20:52 -27.13253 -52.66126 2133 ft 1 kts 358°
2026-04-20 20:53 -27.13244 -52.66121 2133 ft 1 kts 31°
2026-04-20 20:53 -27.13236 -52.66111 2133 ft 1 kts 51°
2026-04-20 20:53 -27.13231 -52.66105 2133 ft 1 kts 51°
2026-04-20 20:53 -27.13230 -52.66104 2133 ft 0 kts 51°